Weather History for KCVG - December, 2014

Change the Weather History Date:

Friday, December 19, 2014

  Actual Average Record
Temperature  
Mean Temperature 28 °F 33 °F  
Max Temperature 31 °F 40 °F 67 °F (1877)
Min Temperature 25 °F 26 °F -7 °F (1963)
Degree Days  
Heating Degree Days 37 32  
Month to date heating degree days 510 561  
Since 1 July heating degree days 1648 1521  
Cooling Degree Days 0 0  
Month to date cooling degree days 0 0  
Year to date cooling degree days 1077 1121  
Moisture  
Dew Point 19 °F    
Average Humidity 70    
Maximum Humidity 81    
Minimum Humidity 58    
Precipitation  
Precipitation 0.00 in 0.10 in 2.03 in (2002)
Month to date precipitation 2.61 2.05  
Year to date precipitation 41.30 41.20  
Snow  
Snow 0.00 in 0.20 in 2.90 in (2009)
Month to date snowfall T 2.5  
Since 1 July snowfall 5.1 3.3  
Snow Depth 0.00 in    
Sea Level Pressure  
Sea Level Pressure 30.28 in    
Wind  
Wind Speed 3 mph (NNW)    
Max Wind Speed 9 mph    
Max Gust Speed 12 mph    
Visibility 8 miles    
Events      
T = Trace of Precipitation, MM = Missing Value Source: NWS Daily Summary

Daily Weather History Graph

Daily Weather History Graph

Search for Another Location

Airport or City:

Trip Planner

Search our weather history database for the weather conditions in past years. The results will help you decide how hot, cold, wet, or windy it might be!

Date:

Astronomy

Dec. 19, 2014 Rise Set
Actual Time 7:53 AM EST 5:18 PM EST
Civil Twilight 7:22 AM EST 5:48 PM EST
Nautical Twilight 6:49 AM EST 6:22 PM EST
Astronomical Twilight 6:16 AM EST 6:54 PM EST
Moon 5:07 AM EST (12/19) 3:39 PM EST (12/19)
Length of Visible Light 10h 25m
Length of Day
9h 25m
Waning Crescent, 7% of the Moon is Illuminated
Dec 19
Waning Crescent
Dec 21
New
Dec 28
First Quarter
Jan 4
Full
Jan 13
Last Quarter

Hourly Weather History & Observations

Time (EST) Temp. Windchill Dew Point Humidity Pressure Visibility Wind Dir Wind Speed Gust Speed Precip Events Conditions
12:26 AM 28.4 °F 23.3 °F 21.2 °F 74% 30.24 in 8.0 mi NW 4.6 mph - N/A   Overcast
12:52 AM 28.0 °F 22.8 °F 21.0 °F 75% 30.26 in 8.0 mi NW 4.6 mph - N/A   Overcast
1:04 AM 28.4 °F 23.3 °F 21.2 °F 74% 30.24 in 8.0 mi NW 4.6 mph - N/A   Overcast
1:52 AM 28.0 °F 22.8 °F 19.9 °F 72% 30.25 in 9.0 mi NNW 4.6 mph - N/A   Mostly Cloudy
2:52 AM 26.1 °F 21.9 °F 19.0 °F 75% 30.26 in 7.0 mi NW 3.5 mph - N/A   Clear
3:34 AM 26.6 °F 22.6 °F 19.4 °F 74% 30.23 in 7.0 mi NNW 3.5 mph - N/A   Mostly Cloudy
3:52 AM 25.0 °F 19.3 °F 19.0 °F 78% 30.26 in 7.0 mi NNW 4.6 mph - N/A   Mostly Cloudy
4:26 AM 24.8 °F - 19.4 °F 80% 30.24 in 6.0 mi Calm Calm - N/A   Haze
4:52 AM 25.0 °F - 19.0 °F 78% 30.26 in 6.0 mi Calm Calm - N/A   Haze
5:12 AM 24.8 °F 17.9 °F 19.4 °F 80% 30.24 in 6.0 mi NNW 5.8 mph - N/A   Haze
5:52 AM 27.0 °F 20.5 °F 19.0 °F 72% 30.28 in 8.0 mi NW 5.8 mph - N/A   Overcast
6:52 AM 27.0 °F - 19.9 °F 75% 30.28 in 8.0 mi Calm Calm - N/A   Overcast
7:52 AM 27.0 °F 23.0 °F 19.9 °F 75% 30.29 in 8.0 mi North 3.5 mph - N/A   Overcast
8:52 AM 28.0 °F 21.7 °F 18.0 °F 66% 30.31 in 9.0 mi North 5.8 mph - N/A   Overcast
9:52 AM 28.0 °F 24.2 °F 18.0 °F 66% 30.31 in 10.0 mi NNE 3.5 mph - N/A   Overcast
10:52 AM 28.9 °F 22.8 °F 18.0 °F 64% 30.32 in 9.0 mi NE 5.8 mph - N/A   Overcast
11:52 AM 28.9 °F 25.2 °F 19.0 °F 67% 30.30 in 9.0 mi Variable 3.5 mph - N/A   Overcast
12:52 PM 30.0 °F - 19.0 °F 64% 30.28 in 9.0 mi Calm Calm - N/A   Overcast
1:52 PM 30.0 °F - 19.0 °F 64% 30.28 in 9.0 mi Calm Calm - N/A   Overcast
2:52 PM 30.0 °F - 19.0 °F 64% 30.27 in 9.0 mi Calm Calm - N/A   Overcast
3:52 PM 30.9 °F - 18.0 °F 59% 30.28 in 7.0 mi Calm Calm - N/A   Overcast
4:52 PM 30.0 °F - 18.0 °F 61% 30.32 in 8.0 mi Calm Calm - N/A   Overcast
5:52 PM 30.0 °F 26.5 °F 19.0 °F 64% 30.32 in 10.0 mi West 3.5 mph - N/A   Overcast
6:52 PM 30.0 °F 25.2 °F 19.0 °F 64% 30.31 in 10.0 mi NNW 4.6 mph - N/A   Overcast
7:52 PM 30.0 °F 26.5 °F 19.9 °F 66% 30.31 in 9.0 mi NNW 3.5 mph - N/A   Overcast
8:52 PM 30.0 °F - 19.9 °F 66% 30.31 in 9.0 mi Calm Calm - N/A   Overcast
9:52 PM 30.0 °F 23.2 °F 19.9 °F 66% 30.27 in 10.0 mi ENE 6.9 mph - N/A   Overcast
10:52 PM 30.0 °F 22.4 °F 19.9 °F 66% 30.27 in 10.0 mi East 8.1 mph - N/A   Overcast
11:52 PM 30.9 °F 27.5 °F 19.9 °F 64% 30.27 in 10.0 mi East 3.5 mph - N/A   Overcast